Flag for Poland Weather past 2 weeks in Bielsko-Biała, Poland

Now
82 °F

Scattered clouds.


Feels Like: 82 °F
Forecast: 58 / 85 °F
Wind: 5 mph from Northeast

Location: Katowice

Current Time: Jul 26, 2014 at 6:05:05 PM

Latest Report: Jul 26, 2014 at 5:00 PM


Visibility: 13 mi

Pressure: 29.90 "Hg

Humidity: 46%

Dew point: 59 °F

Location of Bielsko-BiałaLocation

Historic Weather in Bielsko-Biała — Graph

°F

Bielsko-Biała temperature yesterday

Maximum temperature yesterday: 78 °F (at 4:00 PM)
Minimum temperature yesterday: 64 °F (at 6:00 AM)
Average temperature yesterday: 69 °F

Past Weeks' High & Low Weather Summary

 TemperatureHumidityPressure
High87 °F (Jul 20, 3:00 PM)97% (Jul 17, 4:00 AM)30.16 "Hg (Jul 17, 4:00 AM)
Low57 °F (Jul 12, 6:00 AM)32% (Jul 22, 3:00 PM)29.72 "Hg (Jul 11, 7:00 PM)
Average70 °F71%29.96 "Hg
* Reported Jul 11 4:00 PM — Jul 26 4:00 PM, Bielsko-Biała, Weather by CustomWeather, © 2014

Note: Actual official high and low records may vary slightly from our data, if they occured in-between our weather recording intervals... More about our weather records

Advertising

Bielsko-Biała weather history for previous 24 hours

 ConditionsComfort  
Time TempWeatherWind HumidityBarometerVisibility
4:00 PM
Jul 26
83 °FScattered clouds.2 mph43%29.90 "Hg12 mi
3:00 PM80 °FScattered clouds.2 mph45%29.92 "Hg12 mi
2:00 PM81 °FScattered clouds.2 mph48%29.93 "Hg12 mi
1:00 PM80 °FScattered clouds.2 mph56%29.94 "Hg12 mi
12:00 PM78 °FPartly sunny.2 mph61%29.96 "Hg12 mi
11:00 AM76 °FPartly sunny.2 mph61%29.97 "Hg12 mi
10:00 AM74 °FPartly sunny.1 mph67%29.97 "Hg12 mi
9:00 AM71 °FScattered clouds.1 mph77%29.98 "Hg12 mi
8:00 AM67 °FScattered clouds.2 mph85%29.98 "Hg9 mi
7:00 AM62 °FScattered clouds.1 mph96%29.99 "Hg9 mi
6:00 AM57 °FScattered clouds.No wind96%29.99 "Hg9 mi
5:00 AM58 °FFog.No wind97%29.99 "Hg9 mi
4:00 AM59 °FFog.1 mph96%29.99 "Hg9 mi
3:00 AM60 °FClear.1 mph93%29.99 "Hg9 mi
2:00 AM60 °FPassing clouds.No wind90%29.99 "Hg12 mi
1:00 AM63 °FPassing clouds.2 mph86%29.98 "Hg12 mi
12:00 AM63 °FPassing clouds.2 mph84%29.98 "Hg12 mi
11:00 PM
Jul 25
66 °FPassing clouds.2 mph76%29.98 "Hg12 mi
10:00 PM67 °FPassing clouds.2 mph73%29.98 "Hg12 mi
9:00 PM70 °FThunderstorms. Passing clouds.3 mph64%29.96 "Hg12 mi
8:00 PM72 °FThunderstorms. Partly sunny.1 mph63%29.93 "Hg12 mi
7:00 PM74 °FScattered clouds.1 mph67%29.93 "Hg12 mi
6:00 PM77 °FPartly sunny.2 mph57%29.91 "Hg12 mi
Weather by CustomWeather, © 2014

See weather overviewHow to use our weather pages